Location: Bédeille
(43.0872°N, 1.1041°E)
Time: 03:19:14
(UTC+00:00)

CZ-4B R/B - Pass Details

Date: 03 February 2023
Orbit: 809 x 881 km, 99.0° (Epoch: 27 March)

Event Time Altitude Azimuth Distance (km) Brightness Sun altitude
Rises 19:28:28 0° 183° (S) 3,325 6.3 -25.5°
Reaches altitude 10° 19:30:54 10° 190° (S) 2,404 5.6 -25.9°
Maximum altitude 19:35:56 43° 261° (W) 1,153 4.3 -26.8°
Drops below altitude 10° 19:41:06 10° 333° (NNW) 2,460 5.9 -27.8°
Sets 19:43:37 0° 340° (NNW) 3,411 6.7 -28.2°
